KD4PYR Weather Reports


Display with metric or nautical units.
time (UTC)temp
F
wind
direction
speed
MPH
gust
MPH
rain 1hr
in
rain 24hr
in
rain mn
in
humidity
%
barometer
mb
20260508230834 66 173 3.0 7.0 0.00 0.00 0.00 50 1007.5
20260508225840 66 186 3.0 8.0 0.00 0.00 0.00 50 1007.6
20260508224822 66 182 3.0 7.0 0.00 0.00 0.00 49 1007.5
20260508223841 66 185 2.0 14.0 0.00 0.00 0.00 49 1007.4
20260508222832 67 156 3.0 7.0 0.00 0.00 0.00 49 1007.3
20260508221853 67 157 4.0 8.0 0.00 0.00 0.00 48 1007.4
20260508220823 67 158 3.0 8.0 0.00 0.00 0.00 48 1007.2
20260508215825 67 191 5.0 10.0 0.00 0.00 0.00 47 1007.2
20260508214849 67 183 5.0 14.0 0.00 0.00 0.00 47 1007.4
20260508213818 68 148 3.0 10.0 0.00 0.00 0.00 47 1007.4
20260508212839 68 165 5.0 10.0 0.00 0.00 0.00 45 1007.5
20260508211831 68 215 3.0 11.0 0.00 0.00 0.00 48 1007.6
20260508210822 68 180 5.0 14.0 0.00 0.00 0.00 47 1007.7
20260508205826 68 127 5.0 13.0 0.00 0.00 0.00 47 1007.9
20260508204849 69 157 7.0 10.0 0.00 0.00 0.00 45 1007.8
20260508203819 69 184 3.0 11.0 0.00 0.00 0.00 46 1008.1
20260508202835 68 190 9.0 16.0 0.00 0.00 0.00 44 1008.4
20260508201826 69 204 4.0 10.0 0.00 0.00 0.00 48 1008.4
20260508200817 67 169 3.0 10.0 0.00 0.00 0.00 46 1008.6
20260508195819 67 190 5.0 15.0 0.00 0.00 0.00 44 1008.7
20260508194822 68 180 6.0 10.0 0.00 0.00 0.00 43 1008.8
20260508193841 68 153 3.0 10.0 0.00 0.00 0.00 44 1008.7
20260508192832 68 173 6.0 11.0 0.00 0.00 0.00 45 1008.8
20260508191825 69 151 4.0 10.0 0.00 0.00 0.00 46 1009.0
20260508190815 69 188 4.0 10.0 0.00 0.00 0.00 43 1009.0
20260508185835 68 184 7.0 13.0 0.00 0.00 0.00 42 1009.2
20260508184839 69 178 5.0 14.0 0.00 0.00 0.00 44 1009.5
20260508183831 68 217 4.0 17.0 0.00 0.00 0.00 45 1009.6
20260508182823 68 153 5.0 11.0 0.00 0.00 0.00 44 1009.7
20260508181842 68 180 4.0 11.0 0.00 0.00 0.00 47 1009.9
20260508180831 67 184 4.0 15.0 0.00 0.00 0.00 46 1010.1
20260508175816 67 162 2.0 10.0 0.00 0.00 0.00 45 1010.1
20260508174820 67 130 2.0 10.0 0.00 0.00 0.00 45 1010.3
20260508173816 67 185 5.0 11.0 0.00 0.00 0.00 45 1010.4
20260508172834 67 192 5.0 13.0 0.00 0.00 0.00 45 1010.5
20260508171827 67 265 4.0 11.0 0.00 0.00 0.00 45 1010.9
20260508170843 66 175 3.0 15.0 0.00 0.00 0.00 50 1011.0
20260508165826 66 280 4.0 9.0 0.00 0.00 0.00 47 1011.3
20260508164828 66 189 5.0 16.0 0.00 0.00 0.00 50 1011.6
20260508163819 65 153 4.0 10.0 0.00 0.00 0.00 50 1011.7
20260508162839 65 177 4.0 15.0 0.00 0.00 0.00 52 1011.9
20260508161829 64 290 4.0 12.0 0.00 0.00 0.00 52 1012.1
20260508160820 64 211 4.0 10.0 0.00 0.00 0.00 53 1012.2
20260508155823 63 167 5.0 11.0 0.00 0.00 0.00 52 1012.2
20260508154825 63 286 3.0 12.0 0.00 0.00 0.00 53 1012.4
20260508153817 62 182 2.0 9.0 0.00 0.00 0.00 56 1012.5
20260508152835 62 187 5.0 11.0 0.00 0.00 0.00 54 1012.6
20260508151825 61 188 4.0 11.0 0.00 0.00 0.00 55 1012.8
20260508150817 61 144 2.0 8.0 0.00 0.00 0.00 56 1012.9
20260508145822 60 189 4.0 11.0 0.00 0.00 0.00 57 1012.9
20260508144841 59 176 2.0 10.0 0.00 0.00 0.00 60 1012.9
20260508143839 58 168 6.0 10.0 0.00 0.00 0.00 59 1013.0
20260508142829 57 183 5.0 12.0 0.00 0.00 0.00 60 1012.9
20260508141848 57 215 3.0 11.0 0.00 0.00 0.00 62 1013.0
20260508140819 56 177 3.0 8.0 0.00 0.00 0.00 63 1013.0
20260508135820 55 173 3.0 7.0 0.00 0.00 0.00 65 1013.1
20260508134826 54 161 4.0 10.0 0.00 0.00 0.00 66 1013.2
20260508133816 53 144 4.0 9.0 0.00 0.00 0.00 67 1013.2
20260508132834 52 178 3.0 8.0 0.00 0.00 0.00 67 1013.2
20260508131852 51 177 4.0 10.0 0.00 0.00 0.00 67 1013.2
20260508130821 51 193 5.0 9.0 0.00 0.00 0.00 68 1013.1
20260508125824 50 173 2.0 10.0 0.00 0.00 0.00 69 1013.1
20260508124846 49 178 3.0 12.0 0.00 0.00 0.00 69 1013.1
20260508123818 49 169 3.0 9.0 0.00 0.00 0.00 70 1013.1
20260508122835 48 154 3.0 6.0 0.00 0.00 0.00 71 1013.0
20260508121827 47 154 3.0 10.0 0.00 0.00 0.00 72 1012.9
20260508120816 46 182 3.0 8.0 0.00 0.00 0.00 73 1012.8
20260508115820 46 180 1.0 5.0 0.00 0.00 0.00 74 1012.9
20260508114825 45 174 2.0 7.0 0.00 0.00 0.00 74 1012.8
20260508113818 44 178 3.0 7.0 0.00 0.00 0.00 75 1012.8
20260508112840 44 168 3.0 7.0 0.00 0.00 0.00 76 1012.7
20260508111852 43 180 2.0 5.0 0.00 0.00 0.00 77 1012.6
20260508110825 43 184 1.0 7.0 0.00 0.00 0.00 77 1012.5
20260508105829 43 173 1.0 5.0 0.00 0.00 0.00 76 1012.5
20260508104848 43 165 1.0 3.0 0.00 0.00 0.00 76 1012.4
20260508103824 43 165 0.0 3.0 0.00 0.00 0.00 76 1012.3
20260508102839 43 159 1.0 4.0 0.00 0.00 0.00 77 1012.4
20260508101831 43 198 0.0 3.0 0.00 0.00 0.00 77 1012.4
20260508100820 43 199 1.0 5.0 0.00 0.00 0.00 78 1012.4
20260508095844 43 172 0.0 2.0 0.00 0.00 0.00 78 1012.4
20260508094825 42 172 0.0 2.0 0.00 0.00 0.00 79 1012.4
20260508093843 42 172 0.0 1.0 0.00 0.00 0.00 79 1012.4
20260508092839 42 172 0.0 1.0 0.00 0.00 0.00 79 1012.4
20260508091830 43 172 0.0 1.0 0.00 0.00 0.00 78 1012.3
20260508090821 42 172 1.0 4.0 0.00 0.00 0.00 79 1012.2
20260508085826 42 172 0.0 1.0 0.00 0.00 0.00 79 1012.3
20260508084828 42 172 0.0 1.0 0.00 0.00 0.00 79 1012.3
20260508083846 42 171 0.0 1.0 0.00 0.00 0.00 80 1012.2
20260508082816 42 172 0.0 0.0 0.00 0.00 0.00 80 1012.3
20260508081835 42 172 0.0 1.0 0.00 0.00 0.00 80 1012.2
20260508080826 43 171 0.0 1.0 0.00 0.00 0.00 79 1012.2
20260508075828 44 172 0.0 0.0 0.00 0.00 0.00 76 1012.1
20260508074831 44 172 0.0 1.0 0.00 0.00 0.00 75 1012.2
20260508073823 44 172 0.0 2.0 0.00 0.00 0.00 75 1012.2
20260508072841 44 172 0.0 2.0 0.00 0.00 0.00 75 1012.0
20260508071836 44 171 1.0 3.0 0.00 0.00 0.00 76 1012.2
20260508070824 44 171 0.0 3.0 0.00 0.00 0.00 76 1012.2
20260508065828 44 172 0.0 2.0 0.00 0.00 0.00 76 1012.4
20260508064831 44 171 0.0 1.0 0.00 0.00 0.00 75 1012.7
20260508063822 45 171 0.0 2.0 0.00 0.00 0.00 76 1012.7
20260508062840 45 171 0.0 1.0 0.00 0.00 0.00 75 1012.8
20260508061832 45 171 0.0 3.0 0.00 0.00 0.00 74 1012.9
20260508060823 45 190 1.0 3.0 0.00 0.00 0.00 73 1013.0
20260508055852 45 182 0.0 1.0 0.00 0.00 0.00 74 1013.0
20260508054833 45 182 0.0 2.0 0.00 0.00 0.00 73 1013.0
20260508053824 45 182 0.0 1.0 0.00 0.00 0.00 73 1013.0
20260508052815 45 182 0.0 4.0 0.00 0.00 0.00 72 1012.9
20260508051834 45 183 1.0 3.0 0.00 0.00 0.00 72 1012.9
20260508050825 45 184 0.0 1.0 0.00 0.00 0.00 72 1012.8
20260508045827 46 183 0.0 1.0 0.00 0.00 0.00 74 1012.7
20260508044828 46 183 0.0 1.0 0.00 0.00 0.00 71 1012.9
20260508043824 47 184 0.0 1.0 0.00 0.00 0.00 69 1012.9
20260508042816 48 184 0.0 2.0 0.00 0.00 0.00 66 1012.9
20260508041832 48 180 0.0 3.0 0.00 0.00 0.00 65 1012.8
20260508040849 48 187 0.0 4.0 0.00 0.00 0.00 68 1012.7
20260508035829 48 187 0.0 3.0 0.00 0.00 0.00 65 1012.8
20260508034833 48 187 1.0 5.0 0.00 0.00 0.00 66 1012.9
20260508033825 48 188 0.0 2.0 0.00 0.00 0.00 67 1013.0
20260508032817 48 188 0.0 2.0 0.00 0.00 0.00 67 1012.9
20260508031837 48 188 1.0 2.0 0.00 0.00 0.00 67 1012.9
20260508030827 47 221 0.0 2.0 0.00 0.00 0.00 70 1012.8
20260508025852 47 305 0.0 1.0 0.00 0.00 0.00 70 1012.9
20260508024835 48 313 0.0 1.0 0.00 0.00 0.00 71 1012.8
20260508023826 47 313 0.0 2.0 0.00 0.00 0.00 71 1012.8
20260508022819 47 313 0.0 0.0 0.00 0.00 0.00 69 1012.6
20260508021840 47 313 1.0 1.0 0.00 0.00 0.00 72 1012.7
20260508020831 47 313 0.0 2.0 0.00 0.00 0.00 73 1012.7
20260508015834 47 313 0.0 0.0 0.00 0.00 0.00 71 1012.7
20260508014836 48 313 0.0 1.0 0.00 0.00 0.00 68 1012.6
20260508013830 48 313 0.0 0.0 0.00 0.00 0.00 69 1012.6
20260508012823 49 313 0.0 0.0 0.00 0.00 0.00 66 1012.5
20260508011901 49 313 0.0 0.0 0.00 0.00 0.00 66 1012.5
20260508010832 50 313 0.0 0.0 0.00 0.00 0.00 65 1012.4
20260508005836 50 313 0.0 0.0 0.00 0.00 0.00 62 1012.5
20260508004837 51 313 0.0 0.0 0.00 0.00 0.00 61 1012.3
20260508003829 53 313 0.0 0.0 0.00 0.00 0.00 61 1012.3
20260508002821 54 313 0.0 1.0 0.00 0.00 0.00 58 1012.2
20260508001839 55 313 0.0 1.0 0.00 0.00 0.00 54 1012.1
20260508000830 56 313 1.0 3.0 0.00 0.00 0.00 51 1012.1
20260507235816 57 304 0.0 4.0 0.00 0.00 0.00 44 1012.0
20260507234839 57 300 0.0 3.0 0.00 0.00 0.00 44 1011.9
20260507233830 57 296 1.0 2.0 0.00 0.00 0.00 42 1011.9
20260507232848 57 297 2.0 6.0 0.00 0.00 0.00 42 1011.9
20260507231840 58 261 2.0 4.0 0.00 0.00 0.00 43 1011.9